Weather in Auckland

New Zealand     36°51′06″S   174°45′46″E
temp.,
°C
wind,
m/s
gust,
m/s
humid.,
%
clouds,
%
prec.,
mm/h
press.,
hPa
HPBL,
m
29 november, mon
mon2901:00+16sw1386100 0.0 1023130
04:00+15wsw1290100 0.0 102264
07:00+15wsw128897 0.0 102289
10:00+21wsw1350100 0.0 10221079
13:00+25wsw133660 0.0 10211527
16:00+24wsw33405 0.0 10201337
19:00+21sw345321 0.0 1020613
22:00+15wsw238393 0.0 1021105
30 november, tue
tue3001:00+15wsw2389100 0.0 102191
04:00+15wsw1293100 0.0 102057
07:00+16wsw1288100 0.0 102086
10:00+21w1359100 0.0 1020945
13:00+22sw2455100 0.0 10201099
16:00+24w244799 0.0 10181501
19:00+21nw125961 0.0 1019733
22:00+16sw238944 0.0 102072
1 december, wed
wed101:00+15wsw229338 0.0 102050
04:00+14sw119560 0.0 101939
07:00+16sw119197 0.0 102054
10:00+22wsw125786 0.0 10201104
13:00+22ssw1260100 0.0 10201043
16:00+23ssw225798 0.0 10191117
19:00+20ese237170 0.1 1020412
22:00+18ene117996 0.0 102256
2 december, thu
thu201:00+17nne119052 0.1 102230
04:00+16ese2392100 0.0 1022107
07:00+17e378551 0.0 1023462
10:00+20ene456968 0.1 1023891
13:00+23nne335532 0.1 10231342
16:00+21nne546217 0.0 1022891
19:00+19nne4573100 0.0 1022473
22:00+17nne2586100 0.0 1024231
3 december, fri
fri301:00+17ne3681100 0.0 1024348
04:00+16ne1185100 0.0 102397
07:00+16se2385100 0.0 1024182
10:00+19e3464100 0.0 1024734
13:00+22ene3547100 0.0 10231246
16:00+22ne475296 0.0 10211255
19:00+19e598172 0.4 1022841
22:00+17ene51088100 0.1 1023759